Weather Roundup
Issued by NWS

Home | Current Version | Previous Version | Graphics & Text | Print | Product List | Glossary Off
Versions: 1 2 3 4 5 6 7 8 9 10 11 12 13 14 15 16 17 18 19 20 21 22 23 24 25 26 27 28 29 30 31 32 33 34 35 36 37 38 39 40 41 42 43 44 45 46 47 48 49 50

000
NZUS93 KARX 111359
HRRWXR

CURRENT HOURLY OBSERVATIONS ACROSS
MUCH OF THE UPPER MISSISSIPPI VALLEY
NATIONAL WEATHER SERVICE LA CROSSE WI
800 AM CST MON DEC 11 2017


...SOUTHEAST MINNESOTA...


CITY           SKY/WX    TMP DP  RH WIND       PRES   REMARKS
ROCHESTER      CLOUDY    29  25  85 SW9       29.72S WCI  20
ROCHESTER/MAYO CLOUDY    29  25  83 SE5       29.71F WCI  24
WINONA         CLOUDY    28  25  86 SE5       29.77F WCI  23
AUSTIN         CLOUDY    28  23  80 W6        29.74R WCI  22
ALBERT LEA     LGT SNOW  32  25  74 W5        29.73R WCI  27
DODGE CENTER   LGT SNOW  28  27  93 SW10      29.72R WCI  19
PRESTON        CLOUDY    28  23  82 S10       29.71F WCI  18
OWATONNA       NOT AVBL
FARIBAULT      LGT RAIN  32  30  93 CALM      29.72S
$$

...ELSEWHERE IN MINNESOTA...


CITY           SKY/WX    TMP DP  RH WIND       PRES   REMARKS
MINNEAPOLIS    LGT SNOW  31  30  96 W3        29.72S FOG
INTNL FALLS    CLOUDY    20  15  81 N7        29.77R WCI  11
DULUTH         LGT SNOW  21  20  96 CALM      29.67F VSB 3/4
RED WING       LGT SNOW  30  23  74 SE3       29.73S
REDWOOD FALLS  CLOUDY    39  31  72 NW17G26   29.74R WCI  30
MANKATO        CLOUDY    32  29  88 SW6       29.72F WCI  26
WORTHINGTON    CLOUDY    35  31  85 W22       29.79R WCI  23
FAIRMONT       CLOUDY    36  27  69 NW14      29.73S WCI  27
$$

...SOUTHWEST WISCONSIN...


CITY           SKY/WX    TMP DP  RH WIND       PRES   REMARKS
LA CROSSE      CLOUDY    28  23  81 S6        29.77F WCI  22
PRAIRIE DU CHI MOCLDY    28  22  77 E6        29.79F WCI  22
BOSCOBEL       PTCLDY    25  21  85 CALM      29.80F
LONE ROCK      NOT AVBL
PLATTEVILLE    PTCLDY    26  25  95 SE8       29.80F WCI  18
FORT MC COY    PTCLDY    26  22  87 CALM      29.78F
MAUSTON-NEW LI CLOUDY    25  22  89 SE6       29.79F WCI  18
VIROQUA        FAIR      23  23 100 SE10      29.75F WCI  12
WIS DELLS      CLOUDY    24  22  91 S9        29.81F WCI  14
$$

...ELSEWHERE IN WISCONSIN...


CITY           SKY/WX    TMP DP  RH WIND       PRES   REMARKS
MILWAUKEE      CLOUDY    26  23  88 S7        29.91F WCI  18
MADISON        CLOUDY    25  21  85 S9        29.83F WCI  15
GREEN BAY      CLOUDY    22  21  96 S10       29.87F WCI  11
EAU CLAIRE     NOT AVBL
BLACK RVR FLS  CLOUDY    25  22  86 CALM      29.77F
MEDFORD        CLOUDY    20  19  94 SE9       29.74F FOG     WCI  10
WAUSAU         CLOUDY    20  19  96 SE9       29.77F FOG     WCI   9
WIS RAPIDS     CLOUDY    23  20  88 S6        29.79F WCI  16
MARSHFIELD     CLOUDY    22  20  92 S9        29.74F FOG     WCI  12
RICE LAKE      CLOUDY    24  23  96 CALM      29.74F FOG
$$

...NORTHEAST IOWA...


CITY           SKY/WX    TMP DP  RH WIND       PRES   REMARKS
WATERLOO       CLOUDY    26  21  81 S3        29.74F
DUBUQUE        CLOUDY    27  23  85 S9        29.77F WCI  18
DECORAH        MOCLDY    27  23  86 VRB6      29.72F WCI  20
MASON CITY     CLOUDY    33  24  69 SW9       29.72F WCI  25
CHARLES CITY   MOCLDY    28  27  93 S7        29.73F WCI  21
OELWEIN        CLOUDY    28  27  93 S10       29.74F WCI  19
$$

...ELSEWHERE IN IOWA...


CITY           SKY/WX    TMP DP  RH WIND       PRES   REMARKS
DES MOINES     CLOUDY    32  22  66 W6        29.78F WCI  26
IOWA CITY      PTCLDY    31  25  78 SE6       29.79F WCI  25
FORT DODGE     CLEAR     37  23  56 W13G22    29.76S WCI  29
MARSHALLTOWN   CLOUDY    27  22  81 SW9       29.74F WCI  18
CEDAR RAPIDS   PTCLDY    30  25  81 S6        29.75F WCI  24
$$

...NORTHERN ILLINOIS...


CITY           SKY/WX    TMP DP  RH WIND       PRES   REMARKS
CHICAGO-OHARE  CLOUDY    29  21  72 S9        29.92F WCI  20
CHICAGO-MIDWAY CLOUDY    29  22  75 S12       29.94F WCI  19
MOLINE         MOCLDY    34  25  69 SE8       29.81F WCI  27
ROCKFORD       CLOUDY    27  22  81 S8        29.90F WCI  19
PEORIA         CLOUDY    31  25  78 S13       29.90F WCI  21
$$

NOTE: "FAIR" INDICATES FEW OR NO CLOUDS BELOW 12,000 FEET WITH NO
SIGNIFICANT WEATHER AND/OR OBSTRUCTIONS TO VISIBILITY. WIND
SPEEDS ARE IN MILES-PER-HOUR.




USA.gov is the U.S. government's official web portal to all federal, state and local government web resources and services.